カタログに戻る

HEALTHSAT 1

運用中科学SSO
NORAD 22827·PAYLOAD·🇺🇸 United States

打ち上げ Sep 26, 1993 から Guiana Space Centre

Loading…

次のパス (今後24時間)

TLE

最新Source: Space-Track

元期: Sep 14, 2026, 10:37 UTC

1 22827U 93061E   26257.44268157  .00000106  00000-0  55220-4 0  9994
2 22827  98.6327 325.5520 0009846 121.1170 251.7480 14.32574824720871

AllMySatでHEALTHSAT 1をリアルタイム追跡

Download on the App Store